Torna al catalogo

HODOYOSHI 3

AttivoScienzaSSO
NORAD 40015·PAYLOAD·🇯🇵 Japan

Lanciato Jun 19, 2014 da Dombarovsky

Loading…

Prossimi Passaggi (prossime 24 ore)

TLE

AggiornatoSource: Space-Track

Epoca: Sep 14, 2026, 10:29 UTC

1 40015U 14033F   26257.43731376  .00000861  00000-0  10463-3 0  9999
2 40015  97.6528  56.9535 0034032  61.8979 298.5670 14.85557097660879

Traccia HODOYOSHI 3 in tempo reale con AllMySat

Download on the App Store